Lapse_Rate
7.3 7.5 7.4 7.3 7.4 7.4 7.3 7.2 7.3 7.3 7.4 7.2 7.2 7.3 7.1 7.0 6.9 6.8 6.4 6.1 5.8 5.7 5.6 5.7 5.6 5.7 5.8 5.8 5.7 5.7 5.7 5.7 5.7 5.7 5.8 5.7 5.7 5.8 5.9 5.8 5.8 6.0 6.0
7.3 7.5 7.4 7.3 7.2 7.2 7.3 7.3 7.2 7.1 7.3 7.4 7.2 7.3 7.2 7.1 6.9 6.8 6.6 6.2 5.9 5.8 5.8 5.8 5.7 5.7 5.7 5.8 5.7 5.6 5.6 5.7 5.7 5.8 5.7 5.8 5.7 5.7 5.8 5.7 5.6 5.8 5.8
7.6 7.3 7.1 6.9 6.9 6.8 6.9 7.1 7.1 7.2 7.2 7.4 7.3 7.3 7.2 7.1 7.0 6.8 6.6 6.4 6.0 5.8 5.8 5.9 5.9 5.8 5.8 5.8 5.8 5.7 5.7 5.7 5.8 5.8 5.8 5.8 5.8 5.7 5.7 5.8 5.7 5.7 5.7
7.6 7.7 7.2 6.7 6.6 6.7 6.8 6.9 7.0 7.0 7.1 7.3 7.3 7.2 7.1 7.1 7.1 7.0 6.8 6.6 6.3 6.2 6.1 6.1 6.0 6.0 6.0 5.9 5.8 5.8 5.8 5.8 5.8 5.8 5.8 5.7 5.6 5.6 5.6 5.6 5.6 5.6 5.6
8.0 8.0 7.9 7.8 7.6 7.1 6.7 6.6 6.7 6.8 6.9 7.0 7.0 7.1 7.0 7.0 6.9 7.0 6.7 6.7 6.4 6.3 6.3 6.2 6.1 6.1 6.0 5.9 5.9 5.8 5.7 5.7 5.6 5.7 5.8 5.7 5.7 5.6 5.7 5.6 5.6 5.6 5.7
7.7 7.7 7.6 7.7 7.9 7.8 7.5 7.3 6.7 6.4 6.5 6.9 7.0 7.1 7.0 6.9 6.7 6.6 6.5 6.4 6.1 6.1 6.2 6.2 6.2 6.2 6.0 5.9 5.9 5.8 5.6 5.5 5.6 5.7 5.7 5.6 5.7 5.6 5.6 5.6 5.6 5.6 5.7
7.6 7.5 7.5 7.4 7.4 7.5 7.3 7.3 7.4 6.9 6.5 6.5 6.7 6.9 6.9 6.9 6.8 6.6 6.4 6.3 6.1 6.0 6.1 6.3 6.1 6.1 6.0 5.9 5.8 5.8 5.8 5.5 5.5 5.6 5.7 5.6 5.6 5.6 5.5 5.5 5.5 5.6 5.6
7.3 7.5 7.4 7.3 7.4 7.3 7.1 7.1 6.9 6.5 6.4 6.5 6.5 6.6 6.8 6.7 6.6 6.5 6.3 6.2 6.0 5.9 6.0 6.2 6.2 6.2 6.1 6.0 5.9 5.8 5.8 5.7 5.6 5.6 5.6 5.6 5.6 5.6 5.6 5.5 5.5 5.5 5.6
7.3 7.2 7.3 7.2 7.1 7.2 7.2 6.9 6.8 6.8 6.6 6.6 6.8 6.6 6.6 6.8 6.8 6.6 6.4 6.3 6.1 5.8 5.8 5.9 6.0 6.1 6.0 6.0 6.0 5.9 5.8 5.6 5.6 5.6 5.6 5.5 5.6 5.6 5.5 5.5 5.5 5.6 5.5
7.3 7.2 7.1 7.1 7.0 6.9 6.9 7.1 6.9 6.6 6.4 6.6 6.5 6.8 6.8 6.6 6.6 6.6 6.6 6.4 6.2 6.0 5.9 5.6 5.7 6.0 6.1 6.1 6.0 5.9 5.9 5.7 5.6 5.6 5.7 5.5 5.6 5.7 5.7 5.6 5.6 5.6 5.5
7.1 6.8 6.8 6.9 7.0 7.0 6.9 6.8 6.8 6.8 6.8 6.6 6.6 6.6 6.6 6.9 6.8 6.5 6.5 6.5 6.4 6.4 6.2 6.1 5.9 5.8 6.0 6.1 6.1 6.0 6.0 5.9 5.7 5.7 5.8 5.7 5.7 5.7 5.7 5.8 5.7 5.7 5.6
6.8 6.7 6.6 6.6 6.7 6.8 6.8 6.8 6.5 6.6 6.8 6.7 6.6 6.4 6.4 6.6 6.6 6.7 6.8 6.8 6.6 6.4 6.4 6.4 6.3 6.1 6.0 6.2 6.1 6.0 6.0 5.9 5.8 5.8 5.8 5.9 5.9 5.8 5.8 5.7 5.7 5.8 5.6
6.7 6.6 6.5 6.2 6.3 6.3 6.3 6.3 6.5 6.3 6.1 6.2 6.5 6.4 6.2 6.3 6.4 6.3 6.5 6.3 6.5 6.5 6.4 6.3 6.4 6.4 6.1 6.1 6.1 6.1 6.0 6.1 5.9 5.9 5.9 5.8 5.9 5.8 5.9 5.8 5.8 5.9 5.8
6.5 6.3 6.2 6.1 5.9 5.8 6.0 6.0 6.0 6.2 6.3 6.3 6.2 6.3 6.4 6.2 6.0 6.1 6.2 6.4 6.5 6.3 6.3 6.4 6.3 6.4 6.2 6.1 6.1 6.1 6.1 6.1 6.2 6.1 6.1 5.9 5.8 5.9 5.9 5.9 5.8 5.9 5.9
6.4 6.3 6.2 6.1 5.9 5.8 5.6 5.7 5.9 6.0 6.1 6.1 6.3 6.3 6.3 6.4 6.2 6.0 6.2 6.2 6.4 6.4 6.1 6.0 6.0 6.1 6.2 6.2 6.1 6.2 6.0 5.9 6.0 6.1 6.2 6.2 5.9 5.9 6.1 6.1 5.9 5.9 5.9
6.2 6.2 6.2 6.3 6.2 5.9 5.8 5.7 5.7 5.9 6.1 6.2 6.2 6.2 6.2 6.2 6.4 6.4 6.7 6.5 6.5 6.4 6.5 6.3 6.3 6.3 6.2 6.2 6.2 6.3 6.3 6.1 6.0 6.0 6.1 6.3 6.2 5.9 6.0 6.1 6.1 6.0 5.8
6.2 6.2 6.1 5.9 5.9 6.0 6.0 6.1 5.9 5.9 6.0 6.2 6.3 6.3 6.2 6.2 6.3 6.3 6.4 6.6 6.6 6.3 6.3 6.3 6.5 6.2 6.1 6.2 6.5 6.4 6.5 6.3 6.3 6.0 6.0 6.1 6.3 6.2 6.0 6.0 6.1 6.2 5.9
6.3 6.1 5.8 5.8 5.7 5.8 5.9 6.0 6.2 6.3 6.3 6.4 6.4 6.4 6.4 6.4 6.3 6.3 6.5 6.7 6.8 6.7 6.7 6.8 6.4 7.0 6.1 5.7 5.9 6.8 6.4 6.6 6.3 6.4 5.9 6.0 6.1 6.5 6.3 6.2 6.3 6.3 6.1
6.0 5.8 5.7 5.7 5.8 5.9 6.0 6.1 6.1 6.2 6.4 6.4 6.5 6.6 6.7 6.8 6.8 6.6 6.5 6.6 6.7 6.6 6.6 7.0 7.0 6.4 6.1 5.5 5.9 6.1 6.8 6.4 6.5 6.3 6.3 5.8 6.1 6.4 6.6 6.6 6.4 6.3 6.4
5.7 5.5 5.5 5.6 5.6 5.7 5.8 5.9 5.9 6.1 6.2 6.3 6.6 6.8 6.9 7.0 7.1 6.9 6.8 6.8 6.8 6.6 6.5 6.9 6.7 6.5 6.5 6.1 5.9 5.8 6.5 6.3 6.3 6.3 6.4 5.9 5.9 6.4 6.7 6.8 6.6 6.7 6.7
5.5 5.5 5.7 5.9 5.8 5.9 5.9 6.0 6.2 6.3 6.3 6.4 6.6 6.8 7.0 7.1 7.1 7.1 6.9 6.7 6.4 6.5 6.4 6.5 6.6 6.6 5.8 6.2 6.3 6.1 6.1 6.7 6.1 6.3 6.2 6.4 6.0 6.4 6.7 6.8 6.6 6.8 6.7
5.3 5.5 5.5 5.6 5.8 5.9 6.0 6.0 5.9 5.8 5.8 5.9 6.2 6.5 6.6 6.9 6.8 7.0 6.9 6.8 6.4 6.4 6.3 6.3 6.5 6.1 6.6 5.4 6.2 5.6 5.5 6.1 6.3 6.2 6.2 6.6 6.5 6.5 6.8 6.9 6.8 6.8 6.6
5.3 5.3 5.4 5.5 5.6 5.7 5.7 5.7 5.7 5.6 5.6 5.7 6.0 6.2 6.4 6.5 6.4 6.7 6.8 6.5 6.5 6.5 6.5 6.0 6.0 5.4 6.1 6.3 6.0 5.9 5.9 5.3 6.0 6.5 6.9 6.9 6.4 6.6 7.0 7.1 6.9 7.0 6.7
5.4 5.5 5.5 5.4 5.5 5.6 5.7 5.7 5.8 5.7 5.7 5.7 5.8 5.9 5.9 5.9 6.0 6.2 6.6 6.6 6.7 6.5 6.5 6.4 6.0 5.6 5.6 5.9 6.3 6.6 5.8 5.9 5.8 6.2 7.0 6.9 6.2 6.5 6.9 7.1 7.1 6.9 7.0
5.7 5.6 5.5 5.7 5.8 5.8 5.8 5.7 5.6 5.5 5.5 5.5 5.3 5.6 5.8 5.8 5.6 5.7 6.2 6.1 6.3 6.3 5.7 5.6 6.2 6.0 5.3 5.9 6.2 6.1 5.8 6.0 6.2 5.7 6.5 6.5 6.7 6.6 7.0 7.2 7.2 7.1 7.0
5.6 5.7 5.7 5.8 5.9 5.7 5.5 5.4 5.5 5.5 5.6 5.8 5.8 5.7 6.2 6.1 6.0 5.9 6.3 6.6 6.4 7.0 6.8 6.2 6.2 6.4 6.2 6.2 6.0 6.2 5.6 6.2 5.6 4.8 5.2 5.5 6.7 6.7 6.8 7.3 7.4 7.4 6.9
Wind_Speed
3 2 5 10 13 12 9 6 9 13 13 14 16 17 18 17 17 16 15 13 11 8 6 6 7 8 9 11 12 12 11 11 10 11 12 13 11 11 11 10 10 14 17
5 9 10 10 13 11 9 6 7 10 11 13 14 16 17 17 16 16 15 13 10 9 7 6 6 7 9 11 12 12 11 10 10 11 12 12 13 11 10 12 9 15 17
12 12 12 11 12 10 8 6 6 7 9 11 12 14 15 15 15 15 14 13 10 8 7 7 7 7 10 11 12 12 11 10 10 10 8 9 10 12 11 12 13 15 17
13 12 11 10 11 9 6 5 6 6 6 9 11 11 12 13 14 15 15 13 11 9 8 7 7 8 10 11 12 12 12 11 9 8 6 7 9 11 11 12 13 15 17
19 19 20 17 12 7 4 3 3 5 7 8 9 9 9 10 11 12 14 14 12 11 9 9 8 8 11 12 12 12 11 9 9 6 6 6 8 11 11 11 13 15 17
21 25 28 30 24 14 7 4 2 1 4 7 9 9 8 8 9 10 13 13 12 11 10 9 9 10 11 12 12 11 8 9 8 6 5 5 6 10 10 9 12 13 16
19 23 24 30 28 25 20 13 7 6 5 4 6 9 10 9 9 11 11 12 12 12 11 10 10 11 12 11 11 12 9 9 6 5 5 6 6 9 10 9 11 14 15
18 22 25 28 29 28 25 20 15 9 6 7 7 7 8 9 10 10 11 11 12 12 12 11 11 12 12 12 12 12 10 9 7 6 6 7 6 10 10 10 12 14 14
25 25 25 25 25 25 25 28 24 15 12 10 9 8 9 10 10 11 11 11 12 12 12 12 12 13 13 13 13 13 11 10 7 6 8 7 9 11 11 11 12 14 12
21 24 26 26 26 25 22 26 26 26 18 12 11 13 12 11 12 13 13 14 13 13 13 13 14 14 14 14 14 14 12 10 9 8 10 9 10 12 13 13 14 13 13
16 17 24 24 25 25 20 22 22 22 23 22 15 11 11 10 11 14 15 15 16 15 15 16 16 16 14 14 14 15 12 10 8 8 10 10 12 13 14 15 15 15 16
19 18 20 23 24 23 20 21 19 18 18 18 20 21 16 9 9 14 16 16 18 18 17 18 19 18 14 13 13 14 12 10 9 9 10 12 15 15 15 15 16 16 17
15 14 16 21 23 23 19 19 17 17 18 17 20 19 18 19 12 11 10 12 15 17 16 18 18 17 16 13 13 12 13 12 10 10 12 14 16 15 15 15 17 18 18
16 17 17 21 21 21 18 17 17 16 17 16 18 20 18 12 14 14 9 11 14 15 14 14 14 17 17 16 15 14 15 13 12 11 12 17 19 17 17 18 18 18 19
15 15 16 20 21 21 18 17 16 16 17 18 16 17 18 15 8 13 15 13 12 16 15 10 11 13 14 16 15 15 14 15 15 12 13 18 22 21 18 18 20 20 19
15 16 15 15 19 19 16 18 16 16 18 16 17 19 19 17 14 13 9 10 11 16 19 15 9 9 12 13 14 16 15 16 17 15 14 15 23 24 22 20 21 21 21
12 13 15 14 19 18 16 17 16 17 18 16 17 19 19 18 18 17 10 10 12 22 20 18 13 10 11 13 15 13 13 17 16 17 16 16 16 25 26 23 22 23 24
13 14 14 16 19 19 17 15 15 17 16 16 18 19 20 21 20 17 9 11 16 17 15 12 10 8 7 11 12 12 12 12 16 17 18 16 16 17 23 27 26 26 27
13 15 16 16 17 15 17 16 15 16 16 17 18 19 23 23 22 19 12 14 19 11 11 10 9 7 8 8 13 13 13 13 15 14 15 18 19 17 17 23 29 27 28
12 13 13 12 15 16 15 15 14 14 16 18 17 20 22 22 25 22 16 15 17 11 11 12 16 13 13 11 11 13 13 13 13 14 15 16 20 20 20 20 21 25 27
13 13 14 13 14 12 12 12 11 12 11 12 18 24 24 23 24 22 13 12 12 11 14 15 12 16 11 10 7 9 12 14 16 14 14 13 15 18 20 21 20 20 22
12 13 13 13 14 13 11 10 10 11 9 12 20 23 25 25 24 22 14 12 12 11 15 14 14 11 12 11 10 7 7 11 13 14 13 13 16 12 14 20 22 22 22
12 12 11 12 13 13 13 10 10 10 10 9 11 11 21 28 26 24 21 14 13 10 9 13 14 15 10 10 18 9 4 11 10 9 16 13 15 13 13 15 20 23 24
10 9 10 11 12 12 15 12 14 10 11 11 10 11 13 24 25 26 21 18 14 11 12 12 13 13 14 13 11 15 15 8 7 8 6 13 15 15 16 13 13 19 24
9 9 10 11 13 14 13 13 10 11 10 11 10 15 14 16 22 24 22 18 15 12 12 14 14 15 13 13 12 9 16 10 8 0 6 5 10 14 14 13 13 13 22
9 10 11 13 12 13 13 14 13 14 14 12 14 12 11 12 13 19 22 17 15 14 15 13 14 16 14 15 13 14 10 6 10 7 11 13 11 13 14 13 13 12 15
Wind_Direction
32 128 91 91 98 106 111 106 110 112 114 123 130 134 135 138 138 138 136 138 141 140 143 127 115 113 114 118 122 129 129 127 126 122 121 118 115 112 112 114 129 121 121
14 103 77 77 86 91 97 101 102 108 114 121 128 134 137 140 141 141 141 145 146 151 149 132 123 122 119 126 132 131 138 135 131 126 124 124 125 123 125 122 127 124 127
70 81 78 72 73 79 89 104 107 110 114 122 127 133 137 142 146 148 148 151 155 162 162 153 141 129 127 134 135 135 138 140 131 123 128 132 135 132 133 131 128 132 132
58 60 65 75 84 86 94 105 123 131 135 130 131 136 143 149 155 157 157 163 167 172 179 170 153 141 136 142 140 139 139 136 129 126 147 141 139 133 142 139 138 139 135
40 42 31 29 31 47 74 97 144 151 151 146 146 141 151 159 164 166 168 170 175 185 186 179 163 149 146 148 147 144 141 141 137 151 148 152 152 148 147 143 148 146 146
30 32 30 24 18 16 11 359 344 209 169 169 163 161 169 173 179 178 183 179 182 188 193 181 164 159 157 159 159 153 143 154 160 160 169 167 168 154 155 151 151 141 147
27 23 27 25 19 16 19 11 3 346 319 255 199 188 185 188 196 197 197 194 194 195 195 185 176 171 169 175 174 172 164 160 195 194 193 189 183 172 170 160 155 152 159
30 19 25 22 16 12 8 11 14 355 316 280 251 237 220 210 211 210 209 208 206 207 205 199 189 181 183 185 189 189 185 187 201 211 211 201 188 189 175 166 157 157 154
30 23 19 19 16 11 15 11 2 1 357 312 277 264 251 240 229 230 223 220 216 214 219 215 207 191 195 195 197 202 202 201 219 217 214 209 194 197 183 178 168 161 160
33 24 15 14 13 9 9 9 6 10 1 359 333 287 245 255 247 242 237 233 226 221 223 230 225 209 200 206 205 211 211 211 231 220 212 213 199 199 192 191 179 176 168
24 21 14 10 9 6 6 3 5 7 5 358 353 333 318 277 258 247 240 240 233 229 226 227 232 227 209 219 215 214 211 223 230 218 206 200 203 206 202 196 186 178 175
12 12 10 7 7 4 2 1 3 5 5 2 1 356 335 301 267 280 261 237 242 239 230 232 230 231 220 223 222 220 221 227 229 221 215 206 208 209 209 201 186 179 182
6 11 9 6 3 5 1 359 3 1 359 355 356 353 343 332 292 269 265 254 244 241 238 230 235 232 226 220 220 218 216 220 230 225 223 217 213 214 211 203 200 190 188
9 7 6 5 4 5 360 2 357 359 357 356 350 350 347 341 335 299 254 252 249 231 230 228 231 234 234 223 221 223 217 217 220 224 218 217 218 214 214 207 206 205 199
12 6 5 4 3 0 2 359 359 358 357 349 351 350 346 337 331 326 319 259 239 250 234 224 228 233 238 236 227 226 229 221 221 223 218 208 215 215 216 210 209 208 204
7 6 2 5 4 0 1 358 356 357 354 352 349 347 345 338 328 321 320 315 284 241 245 231 223 222 233 237 230 222 231 233 222 220 219 210 213 216 216 211 208 207 207
7 1 4 2 4 6 6 4 360 355 351 351 346 344 344 341 332 324 313 312 309 314 248 238 223 211 226 230 236 228 220 230 230 225 223 221 212 217 219 220 208 203 207
9 8 4 4 4 6 7 5 3 359 352 349 345 342 342 339 335 325 318 311 311 309 301 233 233 222 221 235 240 232 230 222 230 224 224 221 221 213 215 221 216 210 206
15 9 6 4 3 2 4 5 6 0 357 352 346 344 341 336 334 328 318 312 313 309 304 273 226 199 205 222 236 236 227 230 224 226 223 220 221 218 213 216 220 217 211
18 15 10 5 3 1 4 5 7 3 358 356 350 347 336 333 332 329 320 320 317 303 300 312 254 231 217 209 223 232 230 229 228 223 223 219 224 221 221 218 215 223 221
15 13 9 7 6 8 8 6 3 360 356 353 349 342 339 338 332 328 322 319 314 306 300 299 297 247 206 210 229 231 240 229 231 226 223 219 222 222 223 219 219 217 218
5 6 6 8 9 13 10 5 3 354 352 344 344 339 339 338 335 328 325 318 311 306 304 295 290 291 235 205 211 220 214 224 229 228 222 217 222 220 220 218 218 219 219
8 5 2 5 10 18 9 3 1 354 350 350 342 335 336 333 333 332 323 317 308 309 298 290 288 278 259 221 219 215 200 234 216 208 220 215 219 219 218 216 219 218 217
5 0 1 8 16 15 10 7 2 357 348 341 338 332 332 331 329 333 331 325 323 316 307 300 295 281 267 240 226 215 222 249 209 201 215 214 216 220 215 214 213 219 215
5 6 6 11 21 15 9 6 359 355 344 341 341 339 334 331 333 336 333 330 320 314 305 297 301 306 296 248 241 244 232 206 242 117 252 207 222 219 218 213 210 214 214
9 14 13 14 17 14 7 6 3 358 350 349 351 343 340 337 333 339 337 331 329 318 322 320 313 304 299 296 251 240 224 208 211 230 240 258 220 217 218 213 212 212 213